Tracking 20037 objects as of 20-Nov-2019
Live streaming from Space Station
objects crossing your sky now

ORBCOMM FM 35

Track ORBCOMM FM 35 now!
10-day predictions
ORBCOMM FM 35 is classified as:


NORAD ID: 25985
Int'l Code: 1999-065F
Perigee: 786.1 km
Apogee: 792.5 km
Inclination: 45.0 °
Period: 100.5 minutes
Semi major axis: 7160 km
RCS: 0.5674 m2 (medium)
Launch date: December 4, 1999
Source: ORBCOMM (ORB)
Launch site: AIR FORCE EASTERN TEST RANGE (AFETR)
aabbcc
Your satellite tracking list
Your tracking list is empty




NASA's NSSDC Master Catalog

Two Line Element Set (TLE):
1 25985U 99065F   19323.45940317 +.00000032 +00000-0 +62848-4 0  9996
2 25985 045.0415 323.6179 0004491 310.0761 049.9692 14.32859916042437
Source of the keplerian elements: AFSPC